Tracking 32579 objects as of 16-Dec-2025
HD Live streaming from Space Station
objects crossing your sky now

COSMOS 1275 DEB

Track COSMOS 1275 DEB now!
10-day predictions


NORAD ID: 13802
Int'l Code: 1981-053GZ
Perigee: 926.7 km
Apogee: 1,018.7 km
Inclination: 82.8 °
Period: 104.4 minutes
Semi major axis: 7343 km
RCS: 0.052 m2 (small)
Launch date: June 4, 1981
Source: Commonwealth of Independent States (former USSR) (CIS)
Launch site: PLESETSK MISSILE AND SPACE COMPLEX (PKMTR)

Note: This is SATELLITE DEBRIS
Your satellite tracking list
Your tracking list is empty




NASA's NSSDC Master Catalog

Two Line Element Set (TLE):
1 13802U 81053GW  25349.10830689  .00000896  00000-0  84330-3 0  9993
2 13802  82.8009 221.5553 0062590  17.3065 134.4355 13.79530674200046
Source of the keplerian elements: AFSPC